Flag for U.S.A. Weather past 2 weeks in Atascadero, California, U.S.A.

Now
54 °F

Clear.


Feels Like: 53 °F
Forecast: 45 / 79 °F
Wind: 6 mph from West

Location: Paso Robles Municipal Airport

Current Time: Apr 18, 2015 at 1:59:35 AM

Latest Report: Apr 18, 2015 at 12:53 AM


Visibility: 10 mi

Pressure: 30.05 "Hg

Humidity: 43%

Dew point: 32 °F

Location of AtascaderoLocation

Historic Weather in Atascadero — Graph

°F

Atascadero temperature yesterday

Maximum temperature yesterday: 85 °F (at 3:53 PM)
Minimum temperature yesterday: 39 °F (at 5:53 AM)
Average temperature yesterday: 62 °F

Past Weeks' High & Low Weather Summary

 TemperatureHumidityPressure
High85 °F (Apr 12, 4:53 PM)92% (Apr 8, 5:53 AM)30.24 "Hg (Apr 8, 5:53 AM)
Low36 °F (Apr 3, 5:53 AM)4% (Apr 14, 4:53 PM)29.85 "Hg (Apr 5, 4:53 PM)
Average57 °F50%30.02 "Hg
* Reported Apr 2 11:53 PM — Apr 17 11:53 PM, Atascadero, Weather by CustomWeather, © 2015

Note: Actual official high and low records may vary slightly from our data, if they occured in-between our weather recording intervals... More about our weather records

Advertising

Atascadero weather history for previous 24 hours

 ConditionsComfort  
Time TempWeatherWind HumidityBarometerVisibility
11:53 PM
Fri, Apr 17
57 °FClear.7 mph37%30.05 "Hg10 mi
10:53 PM61 °FClear.12 mph32%30.04 "Hg10 mi
9:53 PM63 °FClear.13 mph31%30.03 "Hg10 mi
8:53 PM67 °FClear.10 mph24%30.01 "Hg10 mi
7:53 PM72 °FSunny.10 mph20%29.99 "Hg10 mi
6:53 PM79 °FSunny.10 mph14%29.97 "Hg10 mi
5:53 PM81 °FSunny.14 mph13%29.96 "Hg10 mi
4:53 PM84 °FSunny.13 mph14%29.96 "Hg10 mi
3:53 PM85 °FSunny.8 mph9%29.98 "Hg10 mi
2:53 PM84 °FSunny.N/A10%30.00 "Hg10 mi
1:53 PM84 °FSunny.10 mph10%30.02 "Hg10 mi
12:53 PM81 °FSunny.5 mph13%30.04 "Hg10 mi
11:53 AM75 °FSunny.3 mph17%30.07 "Hg10 mi
10:53 AM67 °FSunny.5 mph23%30.09 "Hg10 mi
9:53 AM61 °FSunny.No wind25%30.09 "Hg10 mi
8:53 AM53 °FSunny.No wind34%30.10 "Hg10 mi
7:53 AM46 °FSunny.No wind48%30.10 "Hg10 mi
6:53 AM39 °FClear.No wind57%30.09 "Hg10 mi
5:53 AM39 °FClear.No wind55%30.08 "Hg10 mi
4:53 AM40 °FClear.No wind53%30.08 "Hg10 mi
3:53 AM41 °FClear.No wind51%30.07 "Hg10 mi
2:53 AM44 °FClear.3 mph45%30.07 "Hg10 mi
1:53 AM44 °FClear.6 mph43%30.07 "Hg10 mi
Weather by CustomWeather, © 2015

See weather overviewHow to use our weather pages